Starlink 32514

operational
NORAD ID: 61965 Int'l Des: 2024-210 Owner: SPXS Country: US Constellation: starlink
LEOCIRCULAR

About Starlink 32514

Description loading...

Live Position

Loading 3D Globe...

Upcoming Passes

Altitude History

Altitude vs Time

uPlot chart will show altitude changes over time

Two-Line Element Set

1 61965U 24210G 25304.37040659 .00035333 00000-0 12860-2 0 9990
2 61965 43.0022 183.1137 0002239 280.6890 79.3709 15.27614311 55212
Epoch: Oct 31, 2025 • Age: 12 hours

Current Status

Altitude 489.7 km
Velocity 7.62 km/s
Sub-Earth Point -29.04°S, 43.37°E
Launch Date Nov 14, 2024
Age 0.9 years
Type internet

Technical Details

Classification Payload
Mass 730.00 kg
Dry Mass 700.00 kg
Total Mass 730.00 kg
Length 0.30 m
Diameter 4.10 m
Span 29.00 m
Shape Box + pan
Manufacturer SPXS
Bus Type Starlink V2M
Phase Status In Orbit
Owner/State SPXS/US

Large Constellations

Loading constellations...